#timestamp,LO_Frequency,Hit,StdDev 
1669489215.6,286047002.6,N
1669489235.4,286047002.3,N
1669489255.2,286047002.8,N
1669489275.1,286047000.0,N
1669489276.0,286047000.0,N
1669489295.8,286047000.9,N
1669489315.6,286047002.4,N
1669489335.5,286047002.0,N
1669489355.3,286047001.5,N
1669489375.2,286047001.6,N
1669489395.9,286047002.4,N
1669489415.7,286047002.0,N
1669489435.6,286047002.6,N
1669489455.4,286046997.4,N
1669489475.2,286046996.5,N
1669489495.1,286046998.8,N
1669489496.0,286046998.8,N
1669489515.8,286046998.2,N
1669489535.7,286047000.7,N
1669489555.5,286047000.9,N
1669489575.3,286047002.3,N
1669489595.2,286047000.0,N
1669489615.0,286047000.1,N
1669489615.9,286047000.1,N
1669489635.8,286046999.7,N
1669489655.6,286047000.2,N
1669489675.4,286046999.9,N
1669489695.3,286047000.8,N
1669489715.1,286047000.9,N
1669489735.8,286046998.2,N
1669489755.7,286047001.2,N
1669489775.5,286047001.3,N
1669489795.4,286047003.2,N
1669489815.2,286047002.1,N
1669489835.0,286046999.8,N
1669489835.9,286046999.8,N
1669489855.8,286046998.3,N
1669489875.6,286046998.5,N
1669489895.4,286047000.7,N
1669489915.3,286047000.1,N
1669489935.1,286047002.3,N
1669489955.9,286047002.0,N
1669489975.7,286047001.9,N
1669489995.5,286047002.0,N
1669490015.4,286046999.9,N
1669490035.2,286046999.7,N
1669490055.0,286047000.4,N
1669490055.9,286047000.4,N
1669490075.8,286046999.4,N
1669490095.6,286046996.5,N
1669490115.5,286046996.8,N
1669490135.3,286046999.3,N
1669490155.1,286046997.2,N
1669490175.9,286046998.7,N
1669490195.7,286046998.1,N
1669490215.5,286047000.0,N
1669490235.4,286047002.4,N
1669490255.2,286047001.9,N
1669490275.0,286047004.4,N
1669490276.0,286047004.4,N
1669490295.8,286047000.3,N
1669490315.6,286046998.4,N
1669490335.5,286047000.6,N
1669490355.3,286046999.9,N
1669490375.1,286047000.9,N
1669490395.9,286046998.5,N
1669490415.7,286046998.9,N
1669490435.6,286046998.3,N
1669490455.4,286047000.0,N
1669490475.2,286047000.2,N
1669490495.1,286046999.8,N
1669490496.0,286046999.8,N
1669490515.8,286047000.1,N
1669490535.6,286047000.6,N
1669490555.5,286047000.5,N
1669490575.3,286047000.0,N
1669490595.2,286046999.8,N
1669490615.9,286046998.2,N
1669490635.7,286046996.8,N
1669490655.6,286046999.1,N
1669490675.4,286047000.6,N
1669490695.2,286047002.4,N
1669490715.1,286047002.1,N
1669490716.0,286047002.1,N
1669490735.8,286047003.9,N
1669490755.7,286047003.8,N
1669490775.5,286047002.4,N
1669490795.3,286047002.4,N
1669490815.2,286047000.5,N
1669490835.0,286047000.3,N
1669490835.9,286047000.3,N
1669490855.7,286047002.7,N
1669490875.6,286047002.0,N
1669490895.4,286047001.9,N
1669490915.3,286047004.3,N
1669490935.1,286047001.9,N
1669490955.8,286047002.2,N
1669490975.7,286047003.7,N
1669490995.5,286047002.8,N
1669491015.4,286047002.6,N
1669491035.2,286047002.3,N
1669491055.0,286047002.6,N
1669491055.9,286047002.6,N
1669491075.8,286047001.3,N
1669491095.6,286047001.4,N
1669491115.4,286047001.7,N
1669491135.3,286047001.4,N
1669491155.1,286047001.3,N
1669491175.9,286047003.9,N
1669491195.7,286047003.6,Y
1669491215.5,286047000.2,P
1669491235.4,286047002.4,N
1669491255.2,286047002.7,N
1669491275.1,286047000.0,N
1669491276.0,286047000.0,N
1669491295.8,286047000.4,N
1669491315.6,286047000.8,N
1669491335.5,286047001.0,N
1669491355.3,286046998.5,N
1669491375.2,286046999.6,N
1669491395.9,286046997.9,N
1669491415.7,286046999.6,N
1669491435.6,286046996.6,N
1669491455.4,286046997.7,N
1669491475.2,286046996.6,N
1669491495.1,286046996.8,N
1669491496.0,286046996.8,N
1669491515.8,286046999.4,N
1669491535.7,286047001.1,N
1669491555.5,286047000.8,N
1669491575.3,286047000.6,N
1669491595.2,286047000.0,N
1669491615.0,286047000.8,N
1669491615.9,286047000.8,N
1669491635.8,286047002.4,N
1669491655.6,286047002.8,N
1669491675.4,286046999.9,N
1669491695.3,286047000.1,N
1669491715.1,286047002.1,N
1669491735.8,286047001.3,N
1669491755.7,286047001.9,N
1669491775.5,286047003.8,N
1669491795.4,286047003.9,N
1669491815.2,286047004.3,N
1669491835.0,286047001.9,N
1669491835.9,286047001.9,N
1669491855.8,286047002.2,N
1669491875.6,286046999.8,N
1669491895.4,286047000.1,N
1669491915.3,286046999.9,N
1669491935.1,286047000.1,N
1669491955.9,286047000.4,N
1669491975.7,286047002.7,N
1669491995.5,286047000.5,N
1669492015.4,286046999.7,N
1669492035.2,286047002.3,N
1669492055.0,286047000.2,N
1669492055.9,286047000.2,N
1669492075.8,286046999.9,N
1669492095.6,286046999.2,N
1669492115.5,286046998.4,N
1669492135.3,286046997.8,N
1669492155.1,286046997.5,N
1669492175.9,286046997.1,N
1669492195.7,286046996.5,N
1669492215.6,286046998.8,N
1669492235.4,286047000.6,N
1669492255.2,286046999.4,N
1669492275.1,286046999.2,N
1669492276.0,286046999.2,N
1669492295.8,286046999.3,N
1669492315.6,286046999.6,N
1669492335.5,286046997.7,N
1669492355.3,286046999.5,N
1669492375.2,286046999.4,N
1669492395.9,286047001.2,N
1669492415.7,286047002.6,N
1669492435.6,286047000.3,N
1669492455.4,286047001.0,N
1669492475.2,286046998.2,N
1669492495.1,286047001.2,N
1669492496.0,286047001.2,N
1669492515.8,286046998.6,N
1669492535.7,286047000.8,N
1669492555.5,286047000.8,N
1669492575.3,286046998.4,N
1669492595.2,286047000.4,N
1669492615.0,286047001.2,N
1669492615.9,286047001.2,N
1669492635.7,286047001.1,N
1669492655.6,286047001.0,N
1669492675.4,286046998.8,N
1669492695.3,286046999.3,N
1669492715.1,286046998.2,N
1669492716.0,286046998.2,N
1669492735.8,286047000.4,N
1669492755.7,286047000.1,N
1669492775.5,286047000.3,N
1669492795.4,286047000.1,N
